Location: Boitzum
(52.1496°N, 9.6943°E)
Time: 00:26:10
(UTC+00:00)

GRACE-FO 2 - Pass Details

Date: 13 January 2026
Orbit: 447 x 461 km, 89.0° (Epoch: 17 February)

Event Time Altitude Azimuth Distance (km) Brightness Sun altitude
Rises 06:32:42 0° 182° (S) 2,448 8.5 -7.7°
Reaches altitude 10° 06:34:44 10° 184° (S) 1,584 7.5 -7.4°
Maximum altitude 06:38:10 77° 269° (W) 473 4.4 -7.0°
Drops below altitude 10° 06:41:39 10° 357° (N) 1,607 6.9 -6.5°
Sets 06:43:44 0° 359° (N) 2,490 7.9 -6.2°
